Location: Duac?
(36.9744°N, 30.6500°E)
Time: 11:46:21
(UTC+00:00)

CZ-4 R/B - Pass Details

Date: 05 August 2024
Orbit: 512 x 566 km, 97.6° (Epoch: 11 September)

Event Time Altitude Azimuth Distance (km) Brightness Sun altitude
Rises 17:27:01 0° 166° (SSE) 2,691 4.5 -5.8°
Reaches altitude 10° 17:29:09 10° 167° (SSE) 1,793 3.6 -6.1°
Maximum altitude 17:33:01 89° 77° (ENE) 538 1.3 -6.8°
Drops below altitude 10° 17:36:51 10° 348° (NNW) 1,774 4.5 -7.5°
Sets 17:38:57 0° 349° (NNW) 2,659 5.4 -7.9°
